Year,Month,Day,Hour,Minute,Value (Times are PST for barometer in hPa)
2016,03,06,00,00,985.00
2016,03,06,00,01,985.00
2016,03,06,00,02,985.00
2016,03,06,00,03,985.03
2016,03,06,00,04,985.03
2016,03,06,00,05,985.07
2016,03,06,00,06,985.03
2016,03,06,00,07,984.97
2016,03,06,00,08,985.00
2016,03,06,00,09,984.97
2016,03,06,00,10,985.03
2016,03,06,00,11,985.03
2016,03,06,00,12,985.00
2016,03,06,00,13,984.97
2016,03,06,00,14,984.93
2016,03,06,00,15,984.93
2016,03,06,00,16,984.93
2016,03,06,00,17,984.90
2016,03,06,00,18,984.83
2016,03,06,00,19,984.80
2016,03,06,00,20,984.80
2016,03,06,00,21,984.73
2016,03,06,00,22,984.80
2016,03,06,00,23,984.76
2016,03,06,00,24,984.73
2016,03,06,00,25,984.73
2016,03,06,00,26,984.69
2016,03,06,00,27,984.69
2016,03,06,00,28,984.73
2016,03,06,00,29,984.59
2016,03,06,00,30,984.56
2016,03,06,00,31,984.63
2016,03,06,00,32,984.53
2016,03,06,00,33,984.66
2016,03,06,00,34,984.56
2016,03,06,00,35,984.63
2016,03,06,00,36,984.63
2016,03,06,00,37,984.63
2016,03,06,00,38,984.63
2016,03,06,00,39,984.63
2016,03,06,00,40,984.63
2016,03,06,00,41,984.59
2016,03,06,00,42,984.53
2016,03,06,00,43,984.56
2016,03,06,00,44,984.46
2016,03,06,00,45,984.53
2016,03,06,00,46,984.53
2016,03,06,00,47,984.42
2016,03,06,00,48,984.49
2016,03,06,00,49,984.42
2016,03,06,00,50,984.32
2016,03,06,00,51,984.29
2016,03,06,00,52,984.29
2016,03,06,00,53,984.25
2016,03,06,00,54,984.25
2016,03,06,00,55,984.22
2016,03,06,00,56,984.22
2016,03,06,00,57,984.22
2016,03,06,00,58,984.22
2016,03,06,00,59,984.22
2016,03,06,01,00,984.12
2016,03,06,01,01,984.12
2016,03,06,01,02,984.15
2016,03,06,01,03,984.22
2016,03,06,01,04,984.15
2016,03,06,01,05,984.15
2016,03,06,01,06,984.25
2016,03,06,01,07,984.22
2016,03,06,01,08,984.25
2016,03,06,01,09,984.29
2016,03,06,01,10,984.29
2016,03,06,01,11,984.32
2016,03,06,01,12,984.29
2016,03,06,01,13,984.32
2016,03,06,01,14,984.39
2016,03,06,01,15,984.29
2016,03,06,01,16,984.25
2016,03,06,01,17,984.25
2016,03,06,01,18,984.29
2016,03,06,01,19,984.25
2016,03,06,01,20,984.22
2016,03,06,01,21,984.22
2016,03,06,01,22,984.09
2016,03,06,01,23,984.12
2016,03,06,01,24,984.05
2016,03,06,01,25,984.05
2016,03,06,01,26,983.98
2016,03,06,01,27,983.98
2016,03,06,01,28,983.95
2016,03,06,01,29,983.98
2016,03,06,01,30,984.02
2016,03,06,01,31,983.92
2016,03,06,01,32,983.95
2016,03,06,01,33,983.95
2016,03,06,01,34,983.88
2016,03,06,01,35,983.88
2016,03,06,01,36,983.88
2016,03,06,01,37,983.88
2016,03,06,01,38,983.81
2016,03,06,01,39,983.92
2016,03,06,01,40,983.92
2016,03,06,01,41,984.02
2016,03,06,01,42,984.05
2016,03,06,01,43,984.08
2016,03,06,01,44,984.15
2016,03,06,01,45,984.25
2016,03,06,01,46,984.15
2016,03,06,01,47,984.22
2016,03,06,01,48,984.32
2016,03,06,01,49,984.39
2016,03,06,01,50,984.42
2016,03,06,01,51,984.46
2016,03,06,01,52,984.56
2016,03,06,01,53,984.63
2016,03,06,01,54,984.76
2016,03,06,01,55,984.86
2016,03,06,01,56,984.83
2016,03,06,01,57,985.03
2016,03,06,01,58,985.07
2016,03,06,01,59,985.10
2016,03,06,02,00,985.13
2016,03,06,02,01,985.24
2016,03,06,02,02,985.40
2016,03,06,02,03,985.37
2016,03,06,02,04,985.44
2016,03,06,02,05,985.47
2016,03,06,02,06,985.34
2016,03,06,02,07,985.24
2016,03,06,02,08,985.24
2016,03,06,02,09,985.13
2016,03,06,02,10,985.07
2016,03,06,02,11,984.83
2016,03,06,02,12,984.59
2016,03,06,02,13,984.15
2016,03,06,02,14,984.15
2016,03,06,02,15,984.19
2016,03,06,02,16,984.39
2016,03,06,02,17,984.49
2016,03,06,02,18,984.46
2016,03,06,02,19,984.53
2016,03,06,02,20,984.53
2016,03,06,02,21,984.73
2016,03,06,02,22,984.80
2016,03,06,02,23,984.93
2016,03,06,02,24,985.00
2016,03,06,02,25,985.07
2016,03,06,02,26,985.13
2016,03,06,02,27,985.10
2016,03,06,02,28,985.03
2016,03,06,02,29,984.97
2016,03,06,02,30,985.00
2016,03,06,02,31,985.00
2016,03,06,02,32,985.12
2016,03,06,02,33,985.17
2016,03,06,02,34,985.17
2016,03,06,02,35,985.17
2016,03,06,02,36,985.27
2016,03,06,02,37,985.30
2016,03,06,02,38,985.17
2016,03,06,02,39,985.24
2016,03,06,02,40,985.34
2016,03,06,02,41,985.37
2016,03,06,02,42,985.44
2016,03,06,02,43,985.51
2016,03,06,02,44,985.54
2016,03,06,02,45,985.57
2016,03,06,02,46,985.64
2016,03,06,02,47,985.64
2016,03,06,02,48,985.74
2016,03,06,02,49,985.88
2016,03,06,02,50,985.95
2016,03,06,02,51,986.02
2016,03,06,02,52,986.05
2016,03,06,02,53,986.05
2016,03,06,02,54,986.08
2016,03,06,02,55,986.12
2016,03,06,02,56,986.08
2016,03,06,02,57,986.05
2016,03,06,02,58,986.05
2016,03,06,02,59,986.02
2016,03,06,03,00,985.98
2016,03,06,03,01,985.98
2016,03,06,03,02,985.95
2016,03,06,03,03,985.98
2016,03,06,03,04,985.91
2016,03,06,03,05,985.81
2016,03,06,03,06,985.68
2016,03,06,03,07,985.57
2016,03,06,03,08,985.51
2016,03,06,03,09,985.54
2016,03,06,03,10,985.47
2016,03,06,03,11,985.51
2016,03,06,03,12,985.51
2016,03,06,03,13,985.57
2016,03,06,03,14,985.61
2016,03,06,03,15,985.64
2016,03,06,03,16,985.64
2016,03,06,03,17,985.68
2016,03,06,03,18,985.68
2016,03,06,03,19,985.68
2016,03,06,03,20,985.74
2016,03,06,03,21,985.74
2016,03,06,03,22,985.81
2016,03,06,03,23,985.74
2016,03,06,03,24,985.78
2016,03,06,03,25,985.71
2016,03,06,03,26,985.64
2016,03,06,03,27,985.68
2016,03,06,03,28,985.61
2016,03,06,03,29,985.61
2016,03,06,03,30,985.57
2016,03,06,03,31,985.57
2016,03,06,03,32,985.57
2016,03,06,03,33,985.61
2016,03,06,03,34,985.64
2016,03,06,03,35,985.64
2016,03,06,03,36,985.68
2016,03,06,03,37,985.71
2016,03,06,03,38,985.78
2016,03,06,03,39,985.85
2016,03,06,03,40,985.88
2016,03,06,03,41,985.95
2016,03,06,03,42,985.98
2016,03,06,03,43,986.05
2016,03,06,03,44,986.08
2016,03,06,03,45,986.18
2016,03,06,03,46,986.25
2016,03,06,03,47,986.25
2016,03,06,03,48,986.32
2016,03,06,03,49,986.32
2016,03,06,03,50,986.39
2016,03,06,03,51,986.39
2016,03,06,03,52,986.46
2016,03,06,03,53,986.42
2016,03,06,03,54,986.39
2016,03,06,03,55,986.39
2016,03,06,03,56,986.35
2016,03,06,03,57,986.35
2016,03,06,03,58,986.42
2016,03,06,03,59,986.42
2016,03,06,04,00,986.49
2016,03,06,04,01,986.56
2016,03,06,04,02,986.59
2016,03,06,04,03,986.59
2016,03,06,04,04,986.62
2016,03,06,04,05,986.66
2016,03,06,04,06,986.56
2016,03,06,04,07,986.59
2016,03,06,04,08,986.66
2016,03,06,04,09,986.77
2016,03,06,04,10,986.90
2016,03,06,04,11,987.00
2016,03,06,04,12,987.03
2016,03,06,04,13,987.06
2016,03,06,04,14,987.03
2016,03,06,04,15,987.06
2016,03,06,04,16,987.13
2016,03,06,04,17,987.17
2016,03,06,04,18,987.27
2016,03,06,04,19,987.34
2016,03,06,04,20,987.34
2016,03,06,04,21,987.37
2016,03,06,04,22,987.47
2016,03,06,04,23,987.47
2016,03,06,04,24,987.40
2016,03,06,04,25,987.37
2016,03,06,04,26,987.37
2016,03,06,04,27,987.37
2016,03,06,04,28,987.44
2016,03,06,04,29,987.44
2016,03,06,04,30,987.44
2016,03,06,04,31,987.51
2016,03,06,04,32,987.54
2016,03,06,04,33,987.67
2016,03,06,04,34,987.74
2016,03,06,04,35,987.81
2016,03,06,04,36,987.91
2016,03,06,04,37,987.88
2016,03,06,04,38,987.95
2016,03,06,04,39,987.98
2016,03,06,04,40,987.95
2016,03,06,04,41,987.95
2016,03,06,04,42,987.95
2016,03,06,04,43,987.98
2016,03,06,04,44,988.01
2016,03,06,04,45,988.05
2016,03,06,04,46,988.05
2016,03,06,04,47,988.18
2016,03,06,04,48,988.25
2016,03,06,04,49,988.28
2016,03,06,04,50,988.42
2016,03,06,04,51,988.45
2016,03,06,04,52,988.49
2016,03,06,04,53,988.59
2016,03,06,04,54,988.66
2016,03,06,04,55,988.76
2016,03,06,04,56,988.86
2016,03,06,04,57,988.93
2016,03,06,04,58,989.03
2016,03,06,04,59,989.06
2016,03,06,05,00,989.13
2016,03,06,05,01,989.23
2016,03,06,05,02,989.27
2016,03,06,05,03,989.40
2016,03,06,05,04,989.50
2016,03,06,05,05,989.47
2016,03,06,05,06,989.54
2016,03,06,05,07,989.54
2016,03,06,05,08,989.47
2016,03,06,05,09,989.40
2016,03,06,05,10,989.37
2016,03,06,05,11,989.30
2016,03,06,05,12,989.30
2016,03,06,05,13,989.30
2016,03,06,05,14,989.37
2016,03,06,05,15,989.37
2016,03,06,05,16,989.47
2016,03,06,05,17,989.44
2016,03,06,05,18,989.44
2016,03,06,05,19,989.40
2016,03,06,05,20,989.37
2016,03,06,05,21,989.33
2016,03,06,05,22,989.33
2016,03,06,05,23,989.37
2016,03,06,05,24,989.40
2016,03,06,05,25,989.44
2016,03,06,05,26,989.44
2016,03,06,05,27,989.47
2016,03,06,05,28,989.47
2016,03,06,05,29,989.40
2016,03,06,05,30,989.37
2016,03,06,05,31,989.37
2016,03,06,05,32,989.33
2016,03,06,05,33,989.33
2016,03,06,05,34,989.37
2016,03,06,05,35,989.44
2016,03,06,05,36,989.50
2016,03,06,05,37,989.60
2016,03,06,05,38,989.64
2016,03,06,05,39,989.71
2016,03,06,05,40,989.74
2016,03,06,05,41,989.74
2016,03,06,05,42,989.77
2016,03,06,05,43,989.81
2016,03,06,05,44,989.88
2016,03,06,05,45,989.94
2016,03,06,05,46,990.01
2016,03,06,05,47,990.11
2016,03,06,05,48,990.11
2016,03,06,05,49,990.18
2016,03,06,05,50,990.15
2016,03,06,05,51,990.21
2016,03,06,05,52,990.25
2016,03,06,05,53,990.28
2016,03,06,05,54,990.32
2016,03,06,05,55,990.33
2016,03,06,05,56,990.45
2016,03,06,05,57,990.49
2016,03,06,05,58,990.52
2016,03,06,05,59,990.55
2016,03,06,06,00,990.62
2016,03,06,06,01,990.65
2016,03,06,06,02,990.72
2016,03,06,06,03,990.76
2016,03,06,06,04,990.86
2016,03,06,06,05,990.93
2016,03,06,06,06,990.93
2016,03,06,06,07,991.06
2016,03,06,06,08,991.13
2016,03,06,06,09,991.13
2016,03,06,06,10,991.13
2016,03,06,06,11,991.16
2016,03,06,06,12,991.13
2016,03,06,06,13,991.13
2016,03,06,06,14,991.16
2016,03,06,06,15,991.06
2016,03,06,06,16,990.96
2016,03,06,06,17,990.93
2016,03,06,06,18,990.96
2016,03,06,06,19,990.96
2016,03,06,06,20,990.89
2016,03,06,06,21,990.89
2016,03,06,06,22,990.89
2016,03,06,06,23,990.86
2016,03,06,06,24,990.89
2016,03,06,06,25,990.89
2016,03,06,06,26,990.93
2016,03,06,06,27,990.99
2016,03,06,06,28,990.89
2016,03,06,06,29,990.96
2016,03,06,06,30,991.06
2016,03,06,06,31,991.06
2016,03,06,06,32,991.09
2016,03,06,06,33,991.13
2016,03,06,06,34,991.16
2016,03,06,06,35,991.13
2016,03,06,06,36,991.16
2016,03,06,06,37,991.20
2016,03,06,06,38,991.23
2016,03,06,06,39,991.30
2016,03,06,06,40,991.26
2016,03,06,06,41,991.30
2016,03,06,06,42,991.37
2016,03,06,06,43,991.43
2016,03,06,06,44,991.43
2016,03,06,06,45,991.43
2016,03,06,06,46,991.47
2016,03,06,06,47,991.50
2016,03,06,06,48,991.50
2016,03,06,06,49,991.47
2016,03,06,06,50,991.53
2016,03,06,06,51,991.53
2016,03,06,06,52,991.53
2016,03,06,06,53,991.60
2016,03,06,06,54,991.57
2016,03,06,06,55,991.57
2016,03,06,06,56,991.57
2016,03,06,06,57,991.53
2016,03,06,06,58,991.53
2016,03,06,06,59,991.53
2016,03,06,07,00,991.53
2016,03,06,07,01,991.57
2016,03,06,07,02,991.60
2016,03,06,07,03,991.60
2016,03,06,07,04,991.60
2016,03,06,07,05,991.64
2016,03,06,07,06,991.64
2016,03,06,07,07,991.67
2016,03,06,07,08,991.70
2016,03,06,07,09,991.70
2016,03,06,07,10,991.74
2016,03,06,07,11,991.74
2016,03,06,07,12,991.74
2016,03,06,07,13,991.70
2016,03,06,07,14,991.74
2016,03,06,07,15,991.74
2016,03,06,07,16,991.84
2016,03,06,07,17,991.81
2016,03,06,07,18,991.81
2016,03,06,07,19,991.81
2016,03,06,07,20,991.81
2016,03,06,07,21,991.81
2016,03,06,07,22,991.81
2016,03,06,07,23,991.84
2016,03,06,07,24,991.84
2016,03,06,07,25,991.87
2016,03,06,07,26,991.87
2016,03,06,07,27,991.81
2016,03,06,07,28,991.84
2016,03,06,07,29,991.84
2016,03,06,07,30,991.84
2016,03,06,07,31,991.84
2016,03,06,07,32,991.91
2016,03,06,07,33,991.91
2016,03,06,07,34,991.98
2016,03,06,07,35,992.01
2016,03,06,07,36,992.04
2016,03,06,07,37,992.04
2016,03,06,07,38,992.08
2016,03,06,07,39,992.04
2016,03,06,07,40,992.04
2016,03,06,07,41,992.08
2016,03,06,07,42,992.11
2016,03,06,07,43,992.14
2016,03,06,07,44,992.14
2016,03,06,07,45,992.08
2016,03,06,07,46,992.18
2016,03,06,07,47,992.14
2016,03,06,07,48,992.14
2016,03,06,07,49,992.21
2016,03,06,07,50,992.21
2016,03,06,07,51,992.25
2016,03,06,07,52,992.28
2016,03,06,07,53,992.21
2016,03,06,07,54,992.21
2016,03,06,07,55,992.18
2016,03,06,07,56,992.18
2016,03,06,07,57,992.21
2016,03,06,07,58,992.25
2016,03,06,07,59,992.28
2016,03,06,08,00,992.31
2016,03,06,08,01,992.35
2016,03,06,08,02,992.31
2016,03,06,08,03,992.35
2016,03,06,08,04,992.45
2016,03,06,08,05,992.52
2016,03,06,08,06,992.58
2016,03,06,08,07,992.58
2016,03,06,08,08,992.62
2016,03,06,08,09,992.69
2016,03,06,08,10,992.72
2016,03,06,08,11,992.79
2016,03,06,08,12,992.75
2016,03,06,08,13,992.82
2016,03,06,08,14,992.89
2016,03,06,08,15,992.92
2016,03,06,08,16,992.92
2016,03,06,08,17,992.96
2016,03,06,08,18,993.06
2016,03,06,08,19,993.03
2016,03,06,08,20,993.06
2016,03,06,08,21,993.13
2016,03,06,08,22,993.13
2016,03,06,08,23,993.19
2016,03,06,08,24,993.26
2016,03,06,08,25,993.26
2016,03,06,08,26,993.26
2016,03,06,08,27,993.33
2016,03,06,08,28,993.36
2016,03,06,08,29,993.36
2016,03,06,08,30,993.36
2016,03,06,08,31,993.36
2016,03,06,08,32,993.40
2016,03,06,08,33,993.36
2016,03,06,08,34,993.36
2016,03,06,08,35,993.40
2016,03,06,08,36,993.40
2016,03,06,08,37,993.43
2016,03,06,08,38,993.43
2016,03,06,08,39,993.43
2016,03,06,08,40,993.40
2016,03,06,08,41,993.43
2016,03,06,08,42,993.43
2016,03,06,08,43,993.47
2016,03,06,08,44,993.47
2016,03,06,08,45,993.50
2016,03,06,08,46,993.50
2016,03,06,08,47,993.50
2016,03,06,08,48,993.47
2016,03,06,08,49,993.50
2016,03,06,08,50,993.57
2016,03,06,08,51,993.57
2016,03,06,08,52,993.57
2016,03,06,08,53,993.57
2016,03,06,08,54,993.67
2016,03,06,08,55,993.63
2016,03,06,08,56,993.67
2016,03,06,08,57,993.67
2016,03,06,08,58,993.67
2016,03,06,08,59,993.63
2016,03,06,09,00,993.63
2016,03,06,09,01,993.70
2016,03,06,09,02,993.70
2016,03,06,09,03,993.74
2016,03,06,09,04,993.74
2016,03,06,09,05,993.77
2016,03,06,09,06,993.74
2016,03,06,09,07,993.77
2016,03,06,09,08,993.80
2016,03,06,09,09,993.80
2016,03,06,09,10,993.87
2016,03,06,09,11,993.87
2016,03,06,09,12,993.91
2016,03,06,09,13,993.87
2016,03,06,09,14,993.94
2016,03,06,09,15,993.97
2016,03,06,09,16,993.97
2016,03,06,09,17,993.97
2016,03,06,09,18,994.01
2016,03,06,09,19,994.01
2016,03,06,09,20,993.94
2016,03,06,09,21,993.97
2016,03,06,09,22,993.94
2016,03,06,09,23,993.97
2016,03,06,09,24,993.94
2016,03,06,09,25,993.97
2016,03,06,09,26,994.01
2016,03,06,09,27,993.97
2016,03,06,09,28,994.04
2016,03,06,09,29,993.97
2016,03,06,09,30,994.04
2016,03,06,09,31,994.01
2016,03,06,09,32,993.97
2016,03,06,09,33,994.01
2016,03,06,09,34,993.97
2016,03,06,09,35,993.97
2016,03,06,09,36,993.91
2016,03,06,09,37,993.91
2016,03,06,09,38,994.01
2016,03,06,09,39,993.97
2016,03,06,09,40,994.01
2016,03,06,09,41,994.01
2016,03,06,09,42,994.04
2016,03,06,09,43,994.07
2016,03,06,09,44,994.07
2016,03,06,09,45,994.11
2016,03,06,09,46,994.14
2016,03,06,09,47,994.11
2016,03,06,09,48,994.18
2016,03,06,09,49,994.18
2016,03,06,09,50,994.21
2016,03,06,09,51,994.21
2016,03,06,09,52,994.24
2016,03,06,09,53,994.24
2016,03,06,09,54,994.31
2016,03,06,09,55,994.41
2016,03,06,09,56,994.38
2016,03,06,09,57,994.45
2016,03,06,09,58,994.45
2016,03,06,09,59,994.45
2016,03,06,10,00,994.45
2016,03,06,10,01,994.41
2016,03,06,10,02,994.45
2016,03,06,10,03,994.45
2016,03,06,10,04,994.45
2016,03,06,10,05,994.48
2016,03,06,10,06,994.41
2016,03,06,10,07,994.38
2016,03,06,10,08,994.41
2016,03,06,10,09,994.35
2016,03,06,10,10,994.31
2016,03,06,10,11,994.35
2016,03,06,10,12,994.35
2016,03,06,10,13,994.31
2016,03,06,10,14,994.28
2016,03,06,10,15,994.35
2016,03,06,10,16,994.35
2016,03,06,10,17,994.31
2016,03,06,10,18,994.38
2016,03,06,10,19,994.41
2016,03,06,10,20,994.35
2016,03,06,10,21,994.38
2016,03,06,10,22,994.41
2016,03,06,10,23,994.45
2016,03,06,10,24,994.38
2016,03,06,10,25,994.45
2016,03,06,10,26,994.45
2016,03,06,10,27,994.48
2016,03,06,10,28,994.62
2016,03,06,10,29,994.65
2016,03,06,10,30,994.62
2016,03,06,10,31,994.58
2016,03,06,10,32,994.72
2016,03,06,10,33,994.65
2016,03,06,10,34,994.65
2016,03,06,10,35,994.62
2016,03,06,10,36,994.68
2016,03,06,10,37,994.62
2016,03,06,10,38,994.58
2016,03,06,10,39,994.65
2016,03,06,10,40,994.62
2016,03,06,10,41,994.62
2016,03,06,10,42,994.72
2016,03,06,10,43,994.72
2016,03,06,10,44,994.82
2016,03,06,10,45,994.79
2016,03,06,10,46,994.82
2016,03,06,10,47,994.82
2016,03,06,10,48,994.89
2016,03,06,10,49,994.89
2016,03,06,10,50,994.85
2016,03,06,10,51,994.89
2016,03,06,10,52,994.85
2016,03,06,10,53,994.89
2016,03,06,10,54,994.99
2016,03,06,10,55,994.96
2016,03,06,10,56,994.99
2016,03,06,10,57,994.89
2016,03,06,10,58,994.99
2016,03,06,10,59,995.02
2016,03,06,11,00,995.02
2016,03,06,11,01,995.12
2016,03,06,11,02,995.06
2016,03,06,11,03,995.02
2016,03,06,11,04,995.06
2016,03,06,11,05,995.06
2016,03,06,11,06,995.02
2016,03,06,11,07,995.09
2016,03,06,11,08,995.12
2016,03,06,11,09,995.02
2016,03,06,11,10,995.06
2016,03,06,11,11,995.09
2016,03,06,11,12,995.09
2016,03,06,11,13,995.09
2016,03,06,11,14,995.12
2016,03,06,11,15,995.12
2016,03,06,11,16,995.09
2016,03,06,11,17,995.09
2016,03,06,11,18,995.09
2016,03,06,11,19,995.09
2016,03,06,11,20,995.12
2016,03,06,11,21,995.16
2016,03,06,11,22,995.16
2016,03,06,11,23,995.16
2016,03,06,11,24,995.19
2016,03,06,11,25,995.23
2016,03,06,11,26,995.23
2016,03,06,11,27,995.29
2016,03,06,11,28,995.29
2016,03,06,11,29,995.29
2016,03,06,11,30,995.33
2016,03,06,11,31,995.36
2016,03,06,11,32,995.36
2016,03,06,11,33,995.36
2016,03,06,11,34,995.40
2016,03,06,11,35,995.43
2016,03,06,11,36,995.50
2016,03,06,11,37,995.53
2016,03,06,11,38,995.56
2016,03,06,11,39,995.60
2016,03,06,11,40,995.63
2016,03,06,11,41,995.63
2016,03,06,11,42,995.67
2016,03,06,11,43,995.77
2016,03,06,11,44,995.73
2016,03,06,11,45,995.80
2016,03,06,11,46,995.84
2016,03,06,11,47,995.94
2016,03,06,11,48,995.94
2016,03,06,11,49,995.87
2016,03,06,11,50,995.94
2016,03,06,11,51,995.87
2016,03,06,11,52,995.94
2016,03,06,11,53,995.94
2016,03,06,11,54,995.90
2016,03,06,11,55,995.97
2016,03,06,11,56,996.01
2016,03,06,11,57,996.04
2016,03,06,11,58,996.04
2016,03,06,11,59,995.97
2016,03,06,12,00,996.04
2016,03,06,12,01,995.97
2016,03,06,12,02,996.04
2016,03,06,12,03,996.04
2016,03,06,12,04,995.97
2016,03,06,12,05,995.97
2016,03,06,12,06,995.97
2016,03,06,12,07,996.04
2016,03,06,12,08,996.11
2016,03,06,12,09,996.01
2016,03,06,12,10,996.01
2016,03,06,12,11,996.07
2016,03,06,12,12,996.04
2016,03,06,12,13,996.11
2016,03,06,12,14,996.14
2016,03,06,12,15,996.11
2016,03,06,12,16,996.17
2016,03,06,12,17,996.24
2016,03,06,12,18,996.31
2016,03,06,12,19,996.28
2016,03,06,12,20,996.38
2016,03,06,12,21,996.34
2016,03,06,12,22,996.38
2016,03,06,12,23,996.38
2016,03,06,12,24,996.38
2016,03,06,12,25,996.41
2016,03,06,12,26,996.41
2016,03,06,12,27,996.41
2016,03,06,12,28,996.38
2016,03,06,12,29,996.38
2016,03,06,12,30,996.45
2016,03,06,12,31,996.34
2016,03,06,12,32,996.38
2016,03,06,12,33,996.34
2016,03,06,12,34,996.41
2016,03,06,12,35,996.38
2016,03,06,12,36,996.34
2016,03,06,12,37,996.41
2016,03,06,12,38,996.41
2016,03,06,12,39,996.41
2016,03,06,12,40,996.41
2016,03,06,12,41,996.41
2016,03,06,12,42,996.45
2016,03,06,12,43,996.41
2016,03,06,12,44,996.51
2016,03,06,12,45,996.51
2016,03,06,12,46,996.48
2016,03,06,12,47,996.55
2016,03,06,12,48,996.55
2016,03,06,12,49,996.48
2016,03,06,12,50,996.48
2016,03,06,12,51,996.51
2016,03,06,12,52,996.51
2016,03,06,12,53,996.58
2016,03,06,12,54,996.55
2016,03,06,12,55,996.58
2016,03,06,12,56,996.61
2016,03,06,12,57,996.58
2016,03,06,12,58,996.61
2016,03,06,12,59,996.65
2016,03,06,13,00,996.65
2016,03,06,13,01,996.58
2016,03,06,13,02,996.58
2016,03,06,13,03,996.48
2016,03,06,13,04,996.48
2016,03,06,13,05,996.48
2016,03,06,13,06,996.48
2016,03,06,13,07,996.51
2016,03,06,13,08,996.48
2016,03,06,13,09,996.55
2016,03,06,13,10,996.55
2016,03,06,13,11,996.55
2016,03,06,13,12,996.58
2016,03,06,13,13,996.58
2016,03,06,13,14,996.61
2016,03,06,13,15,996.58
2016,03,06,13,16,996.61
2016,03,06,13,17,996.58
2016,03,06,13,18,996.58
2016,03,06,13,19,996.61
2016,03,06,13,20,996.61
2016,03,06,13,21,996.55
2016,03,06,13,22,996.65
2016,03,06,13,23,996.61
2016,03,06,13,24,996.61
2016,03,06,13,25,996.58
2016,03,06,13,26,996.58
2016,03,06,13,27,996.68
2016,03,06,13,28,996.61
2016,03,06,13,29,996.58
2016,03,06,13,30,996.58
2016,03,06,13,31,996.61
2016,03,06,13,32,996.65
2016,03,06,13,33,996.68
2016,03,06,13,34,996.65
2016,03,06,13,35,996.72
2016,03,06,13,36,996.78
2016,03,06,13,37,996.75
2016,03,06,13,38,996.82
2016,03,06,13,39,996.85
2016,03,06,13,40,996.89
2016,03,06,13,41,996.89
2016,03,06,13,42,996.89
2016,03,06,13,43,996.85
2016,03,06,13,44,996.85
2016,03,06,13,45,996.89
2016,03,06,13,46,996.99
2016,03,06,13,47,996.85
2016,03,06,13,48,996.85
2016,03,06,13,49,996.89
2016,03,06,13,50,996.89
2016,03,06,13,51,996.85
2016,03,06,13,52,996.85
2016,03,06,13,53,996.92
2016,03,06,13,54,996.85
2016,03,06,13,55,996.95
2016,03,06,13,56,996.85
2016,03,06,13,57,996.95
2016,03,06,13,58,996.95
2016,03,06,13,59,996.99
2016,03,06,14,00,997.02
2016,03,06,14,01,996.99
2016,03,06,14,02,997.02
2016,03,06,14,03,997.05
2016,03,06,14,04,997.05
2016,03,06,14,05,997.05
2016,03,06,14,06,997.02
2016,03,06,14,07,997.12
2016,03,06,14,08,997.05
2016,03,06,14,09,997.12
2016,03,06,14,10,997.12
2016,03,06,14,11,997.05
2016,03,06,14,12,997.09
2016,03,06,14,13,997.12
2016,03,06,14,14,997.12
2016,03,06,14,15,997.09
2016,03,06,14,16,997.12
2016,03,06,14,17,997.12
2016,03,06,14,18,997.16
2016,03,06,14,19,997.12
2016,03,06,14,20,997.09
2016,03,06,14,21,997.09
2016,03,06,14,22,997.16
2016,03,06,14,23,997.19
2016,03,06,14,24,997.19
2016,03,06,14,25,997.26
2016,03,06,14,26,997.26
2016,03,06,14,27,997.26
2016,03,06,14,28,997.22
2016,03,06,14,29,997.22
2016,03,06,14,30,997.22
2016,03,06,14,31,997.19
2016,03,06,14,32,997.12
2016,03,06,14,33,997.16
2016,03,06,14,34,997.16
2016,03,06,14,35,997.16
2016,03,06,14,36,997.12
2016,03,06,14,37,997.16
2016,03,06,14,38,997.16
2016,03,06,14,39,997.28
2016,03,06,14,40,997.29
2016,03,06,14,41,997.29
2016,03,06,14,42,997.16
2016,03,06,14,43,997.22
2016,03,06,14,44,997.19
2016,03,06,14,45,997.26
2016,03,06,14,46,997.22
2016,03,06,14,47,997.22
2016,03,06,14,48,997.22
2016,03,06,14,49,997.29
2016,03,06,14,50,997.29
2016,03,06,14,51,997.33
2016,03,06,14,52,997.33
2016,03,06,14,53,997.39
2016,03,06,14,54,997.43
2016,03,06,14,55,997.50
2016,03,06,14,56,997.53
2016,03,06,14,57,997.50
2016,03,06,14,58,997.53
2016,03,06,14,59,997.56
2016,03,06,15,00,997.56
2016,03,06,15,01,997.63
2016,03,06,15,02,997.63
2016,03,06,15,03,997.66
2016,03,06,15,04,997.70
2016,03,06,15,05,997.70
2016,03,06,15,06,997.66
2016,03,06,15,07,997.70
2016,03,06,15,08,997.66
2016,03,06,15,09,997.70
2016,03,06,15,10,997.77
2016,03,06,15,11,997.77
2016,03,06,15,12,997.77
2016,03,06,15,13,997.80
2016,03,06,15,14,997.77
2016,03,06,15,15,997.80
2016,03,06,15,16,997.83
2016,03,06,15,17,997.77
2016,03,06,15,18,997.77
2016,03,06,15,19,997.77
2016,03,06,15,20,997.73
2016,03,06,15,21,997.77
2016,03,06,15,22,997.73
2016,03,06,15,23,997.77
2016,03,06,15,24,997.80
2016,03,06,15,25,997.83
2016,03,06,15,26,997.83
2016,03,06,15,27,997.90
2016,03,06,15,28,997.90
2016,03,06,15,29,997.87
2016,03,06,15,30,997.83
2016,03,06,15,31,997.80
2016,03,06,15,32,997.80
2016,03,06,15,33,997.80
2016,03,06,15,34,997.83
2016,03,06,15,35,997.87
2016,03,06,15,36,997.90
2016,03,06,15,37,997.94
2016,03,06,15,38,997.87
2016,03,06,15,39,997.90
2016,03,06,15,40,997.80
2016,03,06,15,41,997.77
2016,03,06,15,42,997.73
2016,03,06,15,43,997.80
2016,03,06,15,44,997.77
2016,03,06,15,45,997.77
2016,03,06,15,46,997.66
2016,03,06,15,47,997.70
2016,03,06,15,48,997.66
2016,03,06,15,49,997.73
2016,03,06,15,50,997.70
2016,03,06,15,51,997.66
2016,03,06,15,52,997.77
2016,03,06,15,53,997.70
2016,03,06,15,54,997.66
2016,03,06,15,55,997.63
2016,03,06,15,56,997.66
2016,03,06,15,57,997.70
2016,03,06,15,58,997.70
2016,03,06,15,59,997.70
2016,03,06,16,00,997.73
2016,03,06,16,01,997.70
2016,03,06,16,02,997.73
2016,03,06,16,03,997.73
2016,03,06,16,04,997.77
2016,03,06,16,05,997.73
2016,03,06,16,06,997.77
2016,03,06,16,07,997.73
2016,03,06,16,08,997.77
2016,03,06,16,09,997.73
2016,03,06,16,10,997.73
2016,03,06,16,11,997.73
2016,03,06,16,12,997.77
2016,03,06,16,13,997.70
2016,03,06,16,14,997.70
2016,03,06,16,15,997.73
2016,03,06,16,16,997.73
2016,03,06,16,17,997.70
2016,03,06,16,18,997.73
2016,03,06,16,19,997.73
2016,03,06,16,20,997.73
2016,03,06,16,21,997.77
2016,03,06,16,22,997.80
2016,03,06,16,23,997.80
2016,03,06,16,24,997.94
2016,03,06,16,25,997.90
2016,03,06,16,26,997.97
2016,03,06,16,27,997.97
2016,03,06,16,28,997.97
2016,03,06,16,29,997.97
2016,03,06,16,30,997.97
2016,03,06,16,31,997.97
2016,03,06,16,32,997.97
2016,03,06,16,33,997.97
2016,03,06,16,34,997.87
2016,03,06,16,35,997.97
2016,03,06,16,36,997.94